User: anonymous   Login
Location: Normandy Village
(37.8755°N, 122.2655°W)
Time: 00:54:04
(UTC+00:00)
Language:

Centaur AC-119 - Orbit

View from above orbital plane
View from above orbital plane
View from above satellite
View from above satellite

Ground track
Ground track

The orbit data is extracted from the following two-line orbital elements,

1 23697U 95057B   19318.09360793  .00016089  00000-0  77971-3 0  9990
2 23697  26.8011 263.3172 5157460 166.0611 216.7180  5.44100799360081
Epoch (UTC): 14 November 2019 02:14:47
Eccentricity: 0.5157460
inclination: 26.8011°
perigee height: 234 km
apogee height: 14319 km
right ascension of ascending node: 263.3172°
argument of perigee: 166.0611°
revolutions per day: 5.44100799
mean anomaly at epoch: 216.7180°
orbit number at epoch: 36008

The dashed part of the orbit path shows where the satellite is in the earth's shadow,  

DLR